Port Isabel, TX

1:33 AM CDT on June 27, 2017 (GMT -0500)
Port Isabel-Cameron County

Weather History for KPIL - September, 2012

Change the Weather History Date:

Wednesday, September 26, 2012

  Actual Average (KBRO) Record (KBRO)
Temperature  
Mean Temperature 85 °F -  
Max Temperature 91 °F 87 °F 97 °F (2005)
Min Temperature 80 °F 68 °F 58 °F (1889)
Cooling Degree Days 20    
Growing Degree Days 35 (Base 50)    
Moisture  
Dew Point 73 °F    
Average Humidity 70    
Maximum Humidity 81    
Minimum Humidity 57    
Precipitation  
Precipitation 0.00 in - - ()
Sea Level Pressure  
Sea Level Pressure 29.95 in    
Wind  
Wind Speed 12 mph (SE)    
Max Wind Speed 18 mph    
Max Gust Speed 25 mph    
Visibility 10 miles    
Events      
Averages and records for this station are not official NWS values.
T = Trace of Precipitation, MM = Missing Value Source: NWS Daily Summary

Daily Weather History Graph

Daily Weather History Graph

Search for Another Location

Airport or City:

Trip Planner

Search our weather history database for the weather conditions in past years. The results will help you decide how hot, cold, wet, or windy it might be!

Date:

Astronomy

Sep. 26, 2012 Rise Set
Actual Time 7:19 AM CDT 7:20 PM CDT
Civil Twilight 6:56 AM CDT 7:43 PM CDT
Nautical Twilight 6:30 AM CDT 8:10 PM CDT
Astronomical Twilight 6:03 AM CDT 8:37 PM CDT
Moon 5:07 PM CDT (9/26) 4:04 AM CDT (9/26)
Length of Visible Light 12h 46m
Length of Day
12h 00m
Waxing Gibbous, 88% of the Moon is Illuminated
Sep 26
Waxing Gibbous
Sep 29
Full
Oct 8
Last Quarter
Oct 15
New
Oct 21
First Quarter

Hourly Weather History & Observations

Time (CDT) Temp. Heat Index Dew Point Humidity Pressure Visibility Wind Dir Wind Speed Gust Speed Precip Events Conditions
12:53 AM 81.0 °F 85.2 °F 72.0 °F 74% 29.96 in 10.0 mi SE 10.4 mph - N/A   Partly Cloudy
1:53 AM 82.0 °F 86.7 °F 72.0 °F 71% 29.95 in 9.0 mi SE 11.5 mph - N/A   Clear
3:53 AM 80.1 °F 84.2 °F 73.0 °F 79% 29.92 in 10.0 mi SE 8.1 mph - N/A   Clear
4:53 AM 80.1 °F 84.2 °F 73.0 °F 79% 29.92 in 10.0 mi SE 8.1 mph - N/A   Clear
5:53 AM 80.1 °F 84.2 °F 73.0 °F 79% 29.92 in 10.0 mi SE 6.9 mph - N/A   Partly Cloudy
6:53 AM 80.1 °F 84.2 °F 73.0 °F 79% 29.94 in 10.0 mi SSE 8.1 mph - N/A   Clear
7:53 AM 80.1 °F 84.5 °F 73.9 °F 81% 29.94 in 9.0 mi SE 6.9 mph - N/A   Clear
8:53 AM 84.9 °F 91.4 °F 73.0 °F 67% 29.96 in 10.0 mi SE 12.7 mph - N/A   Scattered Clouds
9:53 AM 86.0 °F 93.0 °F 73.0 °F 65% 29.97 in 10.0 mi SE 15.0 mph - N/A   Partly Cloudy
10:53 AM 89.1 °F 96.0 °F 72.0 °F 57% 29.99 in 9.0 mi SE 17.3 mph - N/A   Partly Cloudy
11:53 AM 88.0 °F 95.6 °F 73.0 °F 61% 29.98 in 10.0 mi ESE 18.4 mph 24.2 mph N/A   Scattered Clouds
12:53 PM 90.0 °F 97.9 °F 73.0 °F 57% 29.96 in 10.0 mi ESE 18.4 mph 25.3 mph N/A   Partly Cloudy
1:53 PM 90.0 °F 99.0 °F 73.9 °F 59% 29.94 in 10.0 mi East 18.4 mph - N/A   Clear
2:53 PM 90.0 °F 97.9 °F 73.0 °F 57% 29.93 in 10.0 mi East 18.4 mph - N/A   Clear
3:53 PM 88.0 °F 94.7 °F 72.0 °F 59% 29.91 in 10.0 mi ESE 17.3 mph - N/A   Clear
4:53 PM 87.1 °F 96.3 °F 75.0 °F 67% 29.91 in 10.0 mi ESE 16.1 mph - N/A   Clear
5:53 PM 86.0 °F 93.8 °F 73.9 °F 67% 29.92 in 10.0 mi SE 13.8 mph - N/A   Clear
6:53 PM 84.9 °F 92.1 °F 73.9 °F 69% 29.94 in 10.0 mi ESE 12.7 mph - N/A   Clear
7:53 PM 84.0 °F 91.2 °F 73.9 °F 72% 29.95 in 10.0 mi ESE 11.5 mph - N/A   Partly Cloudy
8:49 PM 84.2 °F 92.3 °F 75.2 °F 74% 29.96 in 10.0 mi SE 11.5 mph - 0.00 in   Mostly Cloudy
8:53 PM 84.0 °F 91.2 °F 73.9 °F 72% 29.97 in 10.0 mi ESE 11.5 mph - 0.00 in   Scattered Clouds
9:53 PM 82.9 °F 89.4 °F 73.9 °F 74% 29.98 in 10.0 mi SE 11.5 mph - N/A   Clear
10:53 PM 82.9 °F 90.2 °F 75.0 °F 77% 29.98 in 10.0 mi SE 8.1 mph - N/A   Clear
11:53 PM 82.0 °F 88.6 °F 75.0 °F 79% 29.99 in 10.0 mi SE 9.2 mph - N/A   Clear